Вернуться в каталог

THORAD AGENA D DEB

АктивенLEO
NORAD 4161·DEBRIS·🇺🇸 United States

Запущен Sep 30, 1969 с Vandenberg Space Force Base

Loading…

Ближайшие Пролёты (ближайшие 24 часа)

TLE

СвежийSource: Space-Track

Эпоха: Sep 14, 2026, 07:04 UTC

1 04161U 69082AD  26257.29488191  .00000009  00000-0  41733-4 0  9992
2 04161  70.0215  19.7964 0060299 172.6097 187.5914 13.99422943907178

Отслеживайте THORAD AGENA D DEB в реальном времени с AllMySat

Download on the App Store